Chicago Midway International Airport (MDW)


Airport Diagram
Current Weather/Forecast (VFR Conditions)
METAR KMDW 201553Z 22009KT 10SM FEW020 FEW200 SCT250 M08/M13 A3024 RMK AO2 SLP257 T10781133
TAF KMDW 201503Z 2015/2118 23011KT P6SM SCT200 FM201700 21012G22KT P6SM SCT200 FM202000 22018G28KT P6SM SCT150 FM210000 20012G22KT P6SM SCT150 WS020/23050KT FM210600 25012KT P6SM FEW025

All Charts
General
Chart Name Download
AIRPORT DIAGRAM
TAKEOFF MINIMUMS
ALTERNATE MINIMUMS
HOT SPOT

Departures
Chart Name Download
CICERO TWO
MIDWAY FIVE

Arrivals
Chart Name Download
ENDEE SIX (RNAV)
ENDEE SIX (RNAV), CONT.1
FISSK FOUR (RNAV)
GOSHEN SEVEN
MOTIF SIX
MOTIF SIX, CONT.1
PANGG THREE (RNAV)

Approaches
Chart Name Download
ILS OR LOC RWY 04R
ILS OR LOC RWY 13C
ILS OR LOC/DME RWY 31C
RNAV (RNP) X RWY 22L
RNAV (RNP) Y RWY 04R
RNAV (RNP) Y RWY 13C
RNAV (RNP) Y RWY 22L
RNAV (RNP) Y RWY 31C
RNAV (GPS) RWY 04L
RNAV (GPS) RWY 13L
RNAV (GPS) RWY 22R
RNAV (GPS) RWY 31R
RNAV (GPS) Z RWY 04R
RNAV (GPS) Z RWY 13C
RNAV (GPS) Z RWY 22L
RNAV (GPS) Z RWY 31C